www.pogodaiklimat.ru

Погода и климат >> Архив погоды >> Австралия >> Западная Австралия >> Марди


ПОГОДА в Марди

  • Прогноз погоды в Марди
  • Монитор погоды в Марди

АРХИВ ПОГОДЫ в Марди

Время (UTC), дата Ветер
(напр.,м/с)
 
Видим.   Явления Облачность Т
(С)
Тd
(С)
f
(%)
Тe
(С)
Тes
(С)
Комфортность P
(гПа)
Po
(гПа)
Тmin
(С)
Tmax
(С)
R
(мм)
R24
(мм)
S
(см)
16 12.06 штиль 0 н/о н/о +13.6 +13.6 100 +13 +13 1020.0 1018.6
18 12.06 В 3 н/о н/о +11.7 +11.7 100 +10 +10 1018.8 1017.4
19 12.06 В 2 н/о н/о +10.8 +10.8 100 +10 +10 1018.5 1017.1
21 12.06 В 2 н/о н/о +9.8 +9.8 100 +8 +8 1018.6 1017.2
22 12.06 В 2 н/о н/о +9.6 +9.6 100 +8 +8 1019.3 1017.9
00 13.06 В 3 н/о н/о +13.8 +12.2 90 +13 +13 1020.4 1019.0
01 13.06 В 5 н/о н/о +18.8 +6.0 43 +19 +19 1021.1 1019.7 +9.4
03 13.06 В 5 н/о н/о +23.6 +1.9 24 +23 +23 комфорт 1020.5 1019.1
04 13.06 В 3 н/о н/о +24.4 +0.7 21 +23 +23 комфорт 1019.5 1018.1
06 13.06 Ю 2 н/о н/о +26.1 0.0 18 +24 +24 комфорт 1017.5 1016.1
07 13.06 СЗ 4 н/о н/о +24.3 +7.0 33 +24 +24 комфорт 1017.1 1015.7
09 13.06 З 4 н/о н/о +22.6 +7.6 38 +24 +24 комфорт 1017.1 1015.7
10 13.06 СЗ 2 н/о н/о +19.9 +9.8 52 +22 +22 комфорт 1017.8 1016.4
12 13.06 ЮЗ 2 н/о н/о +17.3 +14.0 81 +18 +18 1019.0 1017.6
13 13.06 ЮЗ 2 н/о н/о +16.2 +13.1 82 +16 +16 1019.0 1017.6 +26.9
15 13.06 ЮЗ 2 н/о н/о +13.9 +11.8 87 +13 +13 1018.7 1017.3
16 13.06 Ю 4 н/о н/о +13.5 +9.9 79 +12 +12 1018.5 1017.1
18 13.06 ЮВ 1 н/о н/о +11.9 +8.6 80 +12 +12 1017.9 1016.5
19 13.06 ЮВ 3 н/о н/о +10.9 +8.1 83 +9 +9 1017.3 1015.9
21 13.06 ЮВ 3 н/о н/о +11.1 +4.8 65 +9 +9 1017.7 1016.3
22 13.06 ЮВ 3 н/о н/о +12.4 +3.6 55 +11 +11 1018.0 1016.6
00 14.06 ЮВ 4 н/о н/о +15.5 +2.3 41 +15 +15 1019.5 1018.1
01 14.06 В 6 н/о н/о +20.1 0.0 26 +20 +20 1020.1 1018.7 +10.7
03 14.06 В 7 н/о н/о +24.5 -2.9 16 +23 +23 комфорт 1019.3 1017.9
04 14.06 В 6 н/о н/о +25.5 -3.9 14 +23 +23 комфорт 1018.2 1016.8
06 14.06 ЮВ 4 н/о н/о +26.9 -4.9 12 +24 +24 комфорт 1016.5 1015.1
07 14.06 ЮВ 4 н/о н/о +27.3 -6.9 10 +24 +24 комфорт 1016.0 1014.6
09 14.06 Ю 3 н/о н/о +27.2 -7.0 10 +24 +24 комфорт 1016.3 1014.9
10 14.06 СЗ 3 н/о н/о +21.5 +8.7 44 +23 +23 комфорт 1016.9 1015.5
12 14.06 ЮЗ 2 н/о н/о +18.5 +3.6 37 +19 +19 1018.1 1016.7
13 14.06 Ю 3 н/о н/о +18.1 +1.6 33 +18 +18 1018.3 1016.9 +28.4
15 14.06 Ю 3 н/о н/о +15.5 +2.0 40 +15 +15 1018.5 1017.1
16 14.06 Ю 3 н/о н/о +14.6 +2.2 43 +14 +14 1018.3 1016.9
18 14.06 Ю 2 н/о н/о +12.1 +2.3 51 +11 +11 1018.2 1016.8
19 14.06 Ю 3 н/о н/о +11.6 +2.1 52 +10 +10 1017.9 1016.5
21 14.06 ЮВ 3 н/о н/о +12.5 +1.8 48 +12 +12 1018.0 1016.6
22 14.06 Ю 3 н/о н/о +10.5 +1.6 54 +9 +9 1018.5 1017.1
00 15.06 В 2 н/о н/о +14.4 +2.3 44 +15 +15 1019.9 1018.5
01 15.06 В 4 н/о н/о +20.4 +0.8 27 +21 +21 комфорт 1020.5 1019.1 +9.9
03 15.06 В 7 н/о н/о +25.2 -1.6 17 +23 +23 комфорт 1019.5 1018.1
04 15.06 ЮВ 5 н/о н/о +26.7 -3.0 14 +24 +24 комфорт 1018.7 1017.3
06 15.06 ЮВ 4 н/о н/о +27.3 -3.5 13 +25 +25 комфорт 1016.8 1015.4
07 15.06 ЮВ 4 н/о н/о +28.1 -6.3 10 +25 +25 комфорт 1016.5 1015.1
09 15.06 СЗ 4 н/о н/о +24.1 +5.5 30 +24 +24 комфорт 1016.5 1015.1
10 15.06 С 2 н/о н/о +20.5 +10.3 52 +23 +23 комфорт 1017.2 1015.8
12 15.06 СЗ 2 н/о н/о +18.1 +16.3 89 +19 +19 1018.1 1016.7
13 15.06 СВ 3 н/о н/о +16.8 +16.0 95 +17 +17 1018.5 1017.1 +28.9
15 15.06 В 2 н/о н/о +14.9 +13.8 93 +15 +15 1018.9 1017.5
16 15.06 В 2 н/о н/о +14.2 +12.8 91 +14 +14 1019.0 1017.6
18 15.06 В 2 н/о н/о +13.0 +10.4 84 +12 +12 1018.8 1017.4
19 15.06 ЮВ 3 н/о н/о +12.3 +8.2 76 +11 +11 1018.8 1017.4
21 15.06 ЮВ 4 н/о н/о +11.8 +3.1 55 +10 +10 1019.0 1017.6
22 15.06 В 3 н/о н/о +10.8 +2.9 58 +9 +9 1019.3 1017.9
00 16.06 В 4 н/о н/о +16.4 +0.9 35 +16 +16 1021.0 1019.6
01 16.06 В 6 н/о н/о +19.9 +0.9 28 +20 +20 1021.2 1019.8 +10.2
03 16.06 В 6 н/о н/о +23.9 -2.6 17 +22 +22 комфорт 1020.4 1019.0
04 16.06 В 5 н/о н/о +25.2 -3.2 15 +23 +23 комфорт 1019.6 1018.2
06 16.06 ЮВ 2 н/о н/о +26.3 -6.5 11 +23 +23 комфорт 1018.3 1016.9
07 16.06 Ю 2 н/о н/о +26.5 +1.7 20 +25 +25 комфорт 1017.7 1016.3
09 16.06 СЗ 4 н/о н/о +23.5 +6.3 33 +24 +24 комфорт 1017.7 1016.3
10 16.06 СЗ 2 н/о н/о +20.3 +8.6 47 +22 +22 комфорт 1018.1 1016.7
12 16.06 З 1 н/о н/о +17.3 +12.0 71 +18 +18 1019.1 1017.7
13 16.06 З 1 н/о н/о +15.6 +11.2 75 +16 +16 1019.4 1018.0
15 16.06 З 2 н/о н/о +14.7 +14.7 100 +15 +15 1019.2 1017.8
16 16.06 З 1 н/о н/о +13.9 +12.1 89 +15 +15 1018.6 1017.2
18 16.06 В 3 н/о н/о +13.3 +9.7 79 +12 +12 1018.3 1016.9
19 16.06 В 4 н/о н/о +12.8 +8.5 75 +11 +11 1018.3 1016.9
21 16.06 В 4 н/о н/о +11.8 +5.2 64 +10 +10 1018.6 1017.2
22 16.06 В 4 н/о н/о +12.2 +3.2 54 +11 +11 1018.9 1017.5
00 17.06 В 1 н/о н/о +14.1 +2.7 46 +15 +15 1020.0 1018.6
01 17.06 ЮВ 5 н/о н/о +20.8 -1.7 22 +21 +21 комфорт 1020.4 1019.0
03 17.06 В 7 н/о н/о +26.3 -4.3 13 +24 +24 комфорт 1019.4 1018.0
04 17.06 СВ 5 н/о н/о +26.8 -4.9 12 +24 +24 комфорт 1018.5 1017.1
06 17.06 СВ 2 н/о н/о +28.4 -6.1 10 +25 +25 комфорт 1016.1 1014.7
07 17.06 В 3 н/о н/о +28.6 -7.3 9 +25 +25 комфорт 1015.8 1014.4
09 17.06 СЗ 4 н/о н/о +24.0 +7.2 34 +24 +24 комфорт 1016.4 1015.0
10 17.06 З 2 н/о н/о +20.9 +9.8 49 +23 +23 комфорт 1016.8 1015.4
12 17.06 З 3 н/о н/о +17.9 +9.0 56 +18 +18 1018.2 1016.8
13 17.06 ЮЗ 3 н/о н/о +16.8 +8.0 56 +17 +17 1018.5 1017.1
15 17.06 штиль 0 н/о н/о +14.7 +6.8 59 +15 +15 1018.2 1016.8
16 17.06 Ю 1 н/о н/о +13.7 +6.1 60 +14 +14 1017.8 1016.4
18 17.06 В 3 н/о н/о +13.5 +3.6 51 +13 +13 1016.9 1015.5
19 17.06 В 3 н/о н/о +13.4 +3.2 50 +12 +12 1016.6 1015.2
21 17.06 В 4 н/о н/о +13.9 +1.2 42 +13 +13 1016.3 1014.9
22 17.06 В 4 н/о н/о +15.6 -0.2 34 +15 +15 1016.8 1015.4
00 18.06 В 8 н/о н/о +19.4 -0.6 26 +19 +19 1017.4 1016.0
01 18.06 В 8 н/о н/о +21.5 -0.5 23 +21 +21 комфорт 1017.8 1016.4
03 18.06 В 4 н/о н/о +25.7 -1.2 17 +24 +24 комфорт 1017.1 1015.7
04 18.06 СВ 3 н/о н/о +27.5 -1.4 15 +25 +25 комфорт 1016.3 1014.9
06 18.06 СЗ 4 н/о н/о +27.8 +2.8 20 +26 +26 жарко 1014.5 1013.1
07 18.06 СЗ 4 н/о н/о +27.1 +4.8 24 +26 +26 жарко 1014.1 1012.7
09 18.06 СЗ 3 н/о н/о +24.2 +6.5 32 +24 +24 комфорт 1014.2 1012.8
10 18.06 СЗ 2 н/о н/о +21.1 +8.7 45 +22 +22 комфорт 1014.6 1013.2
12 18.06 З 2 н/о н/о +17.9 +13.0 73 +19 +19 1015.5 1014.1
13 18.06 ЮЗ 2 н/о н/о +17.1 +12.4 74 +17 +17 1015.8 1014.4 +29.1
15 18.06 З 2 н/о н/о +16.7 +14.5 87 +17 +17 1015.8 1014.4
16 18.06 З 3 н/о н/о +16.6 +12.0 74 +17 +17 1015.2 1013.8
18 18.06 З 2 н/о н/о +14.1 +11.6 85 +14 +14 1014.6 1013.2
19 18.06 З 2 н/о н/о +14.3 +10.5 78 +14 +14 1014.3 1012.9
21 18.06 З 2 н/о н/о +12.0 +8.8 81 +11 +11 1014.1 1012.7
22 18.06 З 3 н/о н/о +12.0 +9.2 83 +11 +11 1014.1 1012.7
00 19.06 Ю 2 н/о н/о +15.8 +8.5 62 +16 +16 1015.0 1013.6
01 19.06 В 6 н/о н/о +22.5 +5.0 32 +23 +23 комфорт 1015.2 1013.8 +11.5
03 19.06 В 3 н/о н/о +27.5 +4.5 23 +26 +26 жарко 1014.5 1013.1
04 19.06 В 3 н/о н/о +28.3 +3.9 21 +27 +27 жарко 1013.7 1012.3
06 19.06 С 4 н/о н/о +29.0 +5.8 23 +28 +28 жарко 1012.4 1011.0
07 19.06 С 4 н/о н/о +28.5 +5.4 23 +27 +27 жарко 1012.2 1010.8
09 19.06 С 4 н/о н/о +25.6 +9.4 36 +26 +26 жарко 1012.5 1011.1
10 19.06 С 2 н/о н/о +23.0 +13.5 55 +26 +26 жарко 1013.2 1011.8
12 19.06 С 2 н/о н/о +21.6 +16.1 71 +25 +25 комфорт 1014.3 1012.9
13 19.06 СВ 2 н/о н/о +20.9 +16.5 76 +25 +25 комфорт 1014.7 1013.3
15 19.06 штиль 0 н/о н/о +19.5 +15.4 77 +21 +21 комфорт 1015.1 1013.7
16 19.06 штиль 0 н/о н/о +19.0 +14.7 76 +20 +20 1015.0 1013.6

 

Местоположение метеостанции Марди (Западная Австралия, Австралия): широта -21.18 долгота 115.97 высота над уровнем моря 12 м.

В архиве по умолчанию представлена погода в Марди за последнюю неделю. Архивные данные за месяц целиком и за предыдущие месяцы, начиная с января 2011 года, Вы можете получить, выбрав интересующий диапазон дат из раскрывающегося списка и нажав кнопку "Ввод!".


*Определитесь, кто Вы:
робот инопланетянин человек

Внимание! Время в таблицах - всемирное. Для получения местного времени необходимо прибавить поправку, которая равна 8 ч.

Смотрите также архив погоды в соседних городах и на ближайших метеорологических станциях:

Погода в Барроу-Айленд (Западная Австралия, Австралия) (68 км)
Погода на Острове Варанас (Западная Австралия, Австралия) (72 км)
Погода в Каррате (Западная Австралия, Австралия) (98 км)
Погода на Острове Тевенард (Западная Австралия, Австралия) (103 км)
Погода в Онслоу (Западная Австралия, Австралия) (104 км)
Погода в Роборн аэропорту (Западная Австралия, Австралия) (132 км)
Погода в Лермонте (Западная Австралия, Австралия) (228 км)
Погода в Параберду (Западная Австралия, Австралия) (287 км)
Погода в Порт-Хедленде Apardoo (Западная Австралия, Австралия) (291 км)
Погода в Марбл-баре (Западная Австралия, Австралия) (392 км)

Пояснения к столбцам:

Ветер - указаны скорость ветра в м/с - средняя за 10 мин, порывы в срок и между сроками (в фигурных скобках) и направление, откуда дует ветер: С - северный, СВ - северо-восточный, В - восточный, ЮВ - юго-восточный, Ю - южный, ЮЗ - юго-западный, З - западный, СЗ - северо-западный.
Видимость - горизонтальная дальность видимости в метрах или километрах. При видимости от 1 до 10 км при отсутствии осадков обычно наблюдается дымка, при ухудшении видимости до 1 км и менее - туман. В сухую погоду видимость может ухудшаться дымом, пылью или мглою.
Явления - указаны атмосферные явления, наблюдавшиеся в срок или в последний час перед сроком; фигурными скобками обозначены явления, наблюдавшиеся между сроками (за 1-3 часа до срока); квадратными скобками обозначены град или гололедные отложения с указанием их диаметра в мм.
Облачность - указаны через наклонную черту общая и нижняя облачность в баллах и высота нижней границы облаков в метрах; квадратными скобками обозначены формы облаков: Ci - перистые, Cs - перисто-слоистые, Cc - перисто-кучевые, Ac - высококучевые, As - высокослоистые, Sc - слоисто-кучевые, Ns - слоисто-дождевые, Cu - кучевые, Cb - кучево-дождевые. Подробнее классификацию облаков см. в Атласе облаков (PDF).
T - Температура воздуха - температура, измеренная на высоте 2 м над землей.
Td - Температура точки росы - температура, при понижении до которой содержащийся в воздухе водяной пар достигнет насыщения.
f - Относительная влажность воздуха - влажноcть воздуха, измеренная на высоте 2 м над землей.
Te - Эффективная температура - температура, которую ощущает одетый по сезону человек в тени. Характеристика душности погоды. При расчете учитывается влияние влажности воздуха и скорости ветра на теплоощущения человека.
Tes - Эффективная температура на солнце - температура, которую ощущает человек, с поправкой на солнечный нагрев. Характеристика знойности погоды. Зависит от высоты солнца над горизонтом, облачности и скорости ветра. Ночью, в пасмурную погоду, а также при ветре 12 м/с и более поправка равна нулю.
P - Атмосферное давление - приведенное к уровню моря атмосферное давление.
Po - Атмосферное давление - измеренное на уровне метеостанции атмосферное давление.
Tmin - Минимальная температура - минимум температуры воздуха на высоте 2 м над землей.
Tmax - Максимальная температура - максимум температуры воздуха на высоте 2 м над землей.
R - Количество осадков - Количество выпавших осадков за период времени, мм. При наведении курсора мыши на число - период времени, за который выпало указанное количество осадков.
R24 - Количество осадков - Количество выпавших осадков за 24 часа, мм.
S - Снежный покров - Высота снежного покрова, см. При наведении курсора мыши на число - состояние снежного покрова и степень покрытия местности в баллах.